Location: Unspecified
(22.6800°N, 112.2000°E)
Time: 08:46:38
(UTC+08:00)

Courier 1B Rocket - Pass Details

Date: 01 August 2021
Orbit: 920 x 1202 km, 28.3° (Epoch: 22 September)

Event Time Altitude Azimuth Distance (km) Brightness Sun altitude
Exits shadow 02:20:16 21° 67° (ENE) 1,995 7.0 -42.1°
Drops below altitude 10° 02:22:12 10° 70° (ENE) 2,657 7.7 -41.9°
Sets 02:24:46 0° 72° (ENE) 3,579 8.5 -41.6°
